OpenBCM V2.0.3 (Linux)

Packet Radio Mailbox

IZ3LSV

[San Dona' di P. JN]

 Login: GUEST





  
I0OJJ  > AMSAT    15.08.26 02:40l 329 Lines 15651 Bytes #999 (0) @ WW
BID : NWVA_IR0EQ
Read: GUEST
Subj: 2Line Orbital Elements
Path: IZ3LSV<ED1ZAC<LU4ECL<LU9DCE<LU1DBQ<IR0EQ
Sent: 260815/0025z @:IR0EQ.ITA.EU [Rome] $:NWVA_IR0EQ

>From i0ojj@rgate.ampr.org Sat Aug 15 02:25:54 2026
Received: from rgate.ampr.org by rgate.ampr.org (JNOS2.0q.1) with SMTP
	id AA1115686 ; Sat, 15 Aug 2026 02:25:54 +0200
Received: by rgate.ampr.org with SMTP
	id AA1115683 ; Sat, 15 Aug 2026 02:25:34 +0200
Message-Id: <1115684@rgate.ampr.org>
>From: i0ojj@rgate.ampr.org

SB KEPS @ AMSAT  $ORB26227.1
2Line Orbital Elements 26227.AMSAT

QST de W1STR

AMSAT Orbital Elements for Amateur Satellites in TLE Format
>From Orbital Analysis Office
New England Sci-Tech STEM Education Center
Natick MA August 15, 2026
To all radio amateurs


These element sets describe the orbits of various satellites 
in use by the amateur radio community. For details see:
www.amsat.org/keplerian-elements-formats/

A daily update of element sets is available at:
www.amsat.org/tle/daily-bulletin.txt
or without bulletin text:
www.amsat.org/tle/dailytle.txt


AO-07
1 07530U 74089B   26226.56829193 -.00000036  00000-0  66932-4 0  9994
2 07530 101.9919 240.4249 0012388  21.7130 100.0600 12.53699118367837
UO-11
1 14781U 84021B   26226.47899080  .00000588  00000-0  65284-4 0  9999
2 14781  97.8112 191.4242 0007591   3.9593 356.1684 14.90917996265815
LO-19
1 20442U 90005G   26226.57803009  .00000020  00000-0  23918-4 0  9995
2 20442  98.8843 249.9890 0012229  39.5255 320.6818 14.34137454910767
AO-27
1 22825U 93061C   26226.45589885  .00000040  00000-0  32285-4 0  9996
2 22825  98.6840 293.8360 0007266 292.3181  67.7231 14.30955147715338
FO-29
1 24278U 96046B   26226.49581780 -.00000041  00000-0 -28872-5 0  9997
2 24278  98.5197  67.3750 0348961 305.2429  51.6512 13.53276842481057
GO-32
1 25397U 98043D   26226.57659263  .00000003  00000-0  21423-4 0  9990
2 25397  99.0117 220.8203 0002257  67.7527 292.3891 14.24438043459647
ISS
1 25544U 98067A   26226.43871707  .00004555  00000-0  89427-4 0  9998
2 25544  51.6329  11.7957 0007493  45.9133 314.2471 15.49439755580788
NO-44
1 26931U 01043C   26226.61951457  .00000038  00000-0  45230-4 0  9994
2 26931  67.0500  93.1385 0005662 269.4300  90.6153 14.31974622298814
SO-50
1 27607U 02058C   26226.61692910  .00000457  00000-0  71787-4 0  9999
2 27607  64.5529 308.1897 0073501 251.7548 107.5550 14.83156615273127
CO-55
1 27844U 03031E   26226.55305987  .00000119  00000-0  70225-4 0  9993
2 27844  98.6759 234.3834 0010013  23.2754 336.8876 14.24366428199983
RS-22
1 27939U 03042A   26226.61618963 -.00000109  00000-0 -84255-5 0  9998
2 27939  98.3477  52.6352 0012554  83.3439   6.0693 14.73555674224155
CO-65
1 32785U 08021C   26226.57478323  .00002841  00000-0  17927-3 0  9997
2 32785  97.8327 209.2458 0008575 178.3954 181.7304 15.09923636994005
CO-66
1 32791U 08021J   26226.52863898  .00010893  00000-0  32761-3 0  9993
2 32791  97.7545 227.3051 0004974 100.1509 260.0294 15.34565391996235
RS-30
1 32953U 08025A   26226.60604966 -.00000039  00000-0 -35410-3 0  9992
2 32953  82.5081 319.1069 0019780 180.9240 179.1807 12.43181548826956
SRMSAT
1 37841U 11058D   26226.60523471  .00000324  00000-0  31980-4 0  9998
2 37841  19.9725  65.8700 0011764 126.7193 269.3587 14.11586189766083
ZACUBE-1
1 39417U 13066B   26226.12501250  .00002796  00000-0  21680-3 0  9998
2 39417  97.8007 188.7358 0042786  58.6466 301.8934 15.01514162689422
Delfi-N3xt
1 39428U 13066N   26226.52679116  .00004804  00000-0  41357-3 0  9996
2 39428  97.8304 146.7967 0074153  14.1827 346.1452 14.95716678683345
GOMX-1
1 39430U 13066Q   26226.60650056  .00000661  00000-0  10630-3 0  9997
2 39430  97.6448  63.3858 0126760 249.6385 109.1167 14.69601630678496
LO-74
1 39440U 13066AA  26226.40038623  .00001568  00000-0  14785-3 0  9998
2 39440  97.8938 175.6520 0056649 192.6956 167.2841 14.94109773685687
AO-73
1 39444U 13066AE  26226.37731554  .00004179  00000-0  25615-3 0  9996
2 39444  97.8329 199.0837 0036066   9.0647 351.1225 15.10200696688447
DTUSAT-2
1 40030U 14033W   26226.47814792  .00004087  00000-0  21855-3 0  9991
2 40030  98.0895 227.9466 0009004  46.5313 313.6665 15.15679053661510
LILACSAT-2
1 40908U 15049K   26226.60750112  .00011415  00000-0  18258-3 0  9999
2 40908  97.4601 265.7313 0007705  52.8828 307.3128 15.53285953604818
Lapan A3
1 41603U 16040E   26226.60075082  .00001675  00000-0  54093-4 0  9995
2 41603  97.1535 220.8533 0010771 155.8039 204.3712 15.33430675563769
CAS-2T
1 41847U 16066G   26226.20663287  .00000233  00000-0  42739-4 0  9992
2 41847  98.3791 301.2792 0340413 313.6649  43.6779 14.44804622513172
TechnoSat
1 42829U 17042E   26226.42104593  .00001161  00000-0  85255-4 0  9993
2 42829  97.4356  21.8987 0015833 253.3354 106.6135 15.05245013495467
AO-91
1 43017U 17073E   26226.60301984  .00004983  00000-0  21411-3 0  9998
2 43017  97.4613  92.6268 0149865 126.3823 235.1343 15.13447865474222
S-Net D
1 43186U 18014G   26226.31300236  .00002306  00000-0  11959-3 0  9991
2 43186  97.5291 130.7405 0008327 164.0641 196.0856 15.17139318467572
S-Net B
1 43187U 18014H   26226.58944973  .00002297  00000-0  11925-3 0  9995
2 43187  97.5297 131.0034 0009116 159.7781 200.3815 15.17108973467616
S-Net A
1 43188U 18014J   26226.31156420  .00002311  00000-0  11983-3 0  9990
2 43188  97.5308 130.9474 0008968 160.9977 199.1593 15.17147413467576
S-Net C
1 43189U 18014K   26226.19792625  .00002364  00000-0  12264-3 0  9991
2 43189  97.5325 130.9180 0010511 156.3364 203.8354 15.17097200466100
Ten-Koh
1 43677U 18084G   26226.50791258  .00000747  00000-0  60268-4 0  9997
2 43677  98.0738  61.3340 0008471 286.2276  73.8015 15.03133785424925
PO-101
1 43678U 18084H   26226.58399997  .00000712  00000-0  61477-4 0  9995
2 43678  98.1203  65.3599 0010699 342.5387  17.5466 15.00646931424977
QO-100
1 43700U 18090A   26226.57308275  .00000129  00000-0  00000-0 0  9999
2 43700   0.0124 101.2265 0002509  77.8653  15.9697  1.00272979 28264
MinXSS-2
1 43758U 18099A   26226.17088474  .00026497  00000-0  45913-3 0  9994
2 43758  97.4492 304.3131 0007118  62.9503 297.2475 15.50854575423102
AO-95
1 43770U 18099N   26226.12626198  .00006355  00000-0  23637-3 0  9994
2 43770  97.4340 286.1908 0009889 136.1873 224.0153 15.27819230422066
SNUSat 2
1 43782U 18099AA  26226.57370651  .00004563  00000-0  19885-3 0  9995
2 43782  97.4015 279.0785 0011915  92.5911 267.6690 15.22633786421910
SnugLite
1 43784U 18099AC  26226.10846088  .00006045  00000-0  22191-3 0  9999
2 43784  97.3822 279.8509 0004647  91.1512 269.0260 15.28303237422163
ITASat 1
1 43786U 18099AE  26226.37179936  .00003573  00000-0  17021-3 0  9990
2 43786  97.3987 276.7342 0013549 143.3251 216.8914 15.19692415421747
EAGLET 1
1 43790U 18099AJ  26226.57764457  .00001773  00000-0  10302-3 0  9990
2 43790  97.4187 274.7005 0012269 137.7957 222.4221 15.13318649421165
ESEO
1 43792U 18099AL  26226.58217905  .00001371  00000-0  10217-3 0  9993
2 43792  97.3939 261.4643 0013106 130.2211 230.0165 15.04394825420581
JO-97
1 43803U 18099AX  26226.13093212  .00009972  00000-0  29233-3 0  9993
2 43803  97.4082 289.2245 0006886  74.4311 285.7692 15.35371991422517
Suomi 100
1 43804U 18099AY  26226.12240863  .00007118  00000-0  24996-3 0  9990
2 43804  97.4144 286.3369 0011325  79.5994 280.6522 15.29652533422275
ISAT
1 43879U 18111D   26226.36363029  .00139900  00000-0  78987-3 0  9997
2 43879  97.5822 166.6116 0009115 102.4085 257.8201 15.78692282420303
UWE-4
1 43880U 18111E   26226.33229927  .00022596  00000-0  41006-3 0  9998
2 43880  97.5833 157.5532 0009965 106.2295 254.0053 15.49548186419770
Sparrow
1 43881U 18111F   26226.58856138  .02132717  25508-5  11027-2 0  9999
2 43881  97.5964 174.2813 0011484 172.3688 187.7777 16.20223226420641
Prox-1
1 44339U 19036A   26225.93701741  .00007012  00000-0  64995-3 0  9997
2 44339  23.9947  88.0962 0006047 346.7540  13.2800 14.91817874382106
Taurus 1
1 44530U 19059C   26226.61838733  .00002862  00000-0  45790-3 0  9993
2 44530  98.6463  35.1139 0009561 125.4275 234.7825 14.72625092367244
TO-108
1 44881U 19093C   26226.60503681 -.00000011  00000-0  47515-5 0  9994
2 44881  97.7500 297.4033 0012058 253.7834 106.2056 14.86593963360093
RS-44
1 44909U 19096E   26226.56177925  .00000030  00000-0  75140-4 0  9995
2 44909  82.5229 300.9227 0217536   8.2037 352.2528 12.79748812309810
SALSAT
1 46495U 20068K   26226.54173647  .00004304  00000-0  14848-3 0  9998
2 46495  97.8873 233.2000 0011451  97.1659 263.0882 15.30530180324285
CSS (TIANHE-1)
1 48274U 21035A   26224.98627525  .00000101  00000-0  54127-5 0  9992
2 48274  41.4709 337.2096 0001079 250.4973 109.5748 15.58975796302033
TeikyoSat 4
1 49396U 21102B   26226.58375413  .00000692  00000-0  46679-4 0  9994
2 49396  97.3655 253.7966 0013759  92.0819 268.1987 15.09684796261533
Z-Sat
1 49399U 21102E   26226.58353247  .00001510  00000-0  75797-4 0  9991
2 49399  97.3295 260.1392 0017919  47.5063 312.7682 15.18656764262307
KOSEN 1
1 49402U 21102H   26226.58586273  .00004148  00000-0  15619-3 0  9999
2 49402  97.3146 267.6260 0013373   9.2774 350.8710 15.27577637262932
HO-113
1 50466U 21131B   26226.64338698  .00000279  00000-0  99896-4 0  9997
2 50466  98.4989 318.7173 0002888 288.8257  71.2618 14.41403464243539
SNUGLITE 2
1 52899U 22065F   26226.38333554  .00000421  00000-0  88786-4 0  9998
2 52899  98.2280  11.1388 0007183 191.2990 168.8052 14.64438450219513
UmKA 1 (RS40S)
1 57172U 23091G   26226.57473193  .00002995  00000-0  13653-3 0  9990
2 57172  97.5005 285.0568 0010753 275.8114  84.1896 15.21389720172888
CubeBel-2 (EU11S)
1 57175U 23091K   26226.59359193  .00007105  00000-0  24390-3 0  9996
2 57175  97.5005 290.3737 0007701 264.5899  95.4463 15.30430560173236
RS-38S
1 57189U 23091Z   26226.61467143  .00010170  00000-0  27687-3 0  9997
2 57189  97.5050 297.3314 0006378 206.9531 153.1383 15.37690840173667
